Weather History for Lewistown, MT

Change the Weather History Date:

Thursday, April 24, 2014

  Actual Average Record
Temperature  
Mean Temperature 42 °F 44 °F  
Max Temperature 53 °F 56 °F 84 °F (1910)
Min Temperature 30 °F 31 °F 17 °F (1958)
Degree Days  
Heating Degree Days 23 21  
Month to date heating degree days 578 586  
Since 1 July heating degree days 7751 7385  
Cooling Degree Days 0 0  
Month to date cooling degree days 0 0  
Year to date cooling degree days 0 0  
Moisture  
Dew Point 29 °F    
Average Humidity 63    
Maximum Humidity 85    
Minimum Humidity 41    
Precipitation  
Precipitation T in 0.05 in 1.38 in (1994)
Month to date precipitation 0.63 1.06  
Year to date precipitation 3.38 3.06  
Snow  
Snow 0.00 in - - ()
Snow Depth 0.00 in    
Sea Level Pressure  
Sea Level Pressure 29.79 in    
Wind  
Wind Speed 9 mph (West)    
Max Wind Speed 26 mph    
Max Gust Speed 32 mph    
Visibility 10 miles    
Events      
T = Trace of Precipitation, MM = Missing Value Source: NWS Daily Summary

Daily Weather History Graph

Daily Weather History Graph

Search for Another Location

Airport:

Trip Planner

Search our weather history database for the weather conditions in past years. The results will help you decide how hot, cold, wet, or windy it might be!

Date:

Astronomy

Apr. 24, 2014 Rise Set
Actual Time 6:13 AM MDT 8:19 PM MDT
Civil Twilight 5:40 AM MDT 8:52 PM MDT
Nautical Twilight 4:59 AM MDT 9:33 PM MDT
Astronomical Twilight 4:14 AM MDT 10:19 PM MDT
Moon 3:46 AM MDT (4/24) 3:20 PM MDT (4/24)
Length of Visible Light 15h 11m
Length of Day
14h 05m
Waning Crescent, 24% of the Moon is Illuminated
Apr 24
Waning Crescent
Apr 29
New
May 6
First Quarter
May 14
Full
May 21
Last Quarter

Hourly Weather History & Observations

Time (MDT) Temp. Windchill Dew Point Humidity Pressure Visibility Wind Dir Wind Speed Gust Speed Precip Events Conditions
12:54 AM 35.1 °F 26.4 °F 24.1 °F 64% 29.80 in 10.0 mi WSW 12.7 mph - N/A   Clear
1:54 AM 33.1 °F 24.9 °F 26.1 °F 75% 29.80 in 10.0 mi SW 10.4 mph - N/A   Clear
2:54 AM 34.0 °F 28.8 °F 26.1 °F 73% 29.80 in 10.0 mi WNW 5.8 mph - N/A   Scattered Clouds
3:54 AM 33.1 °F 25.5 °F 25.0 °F 72% 29.81 in 10.0 mi WSW 9.2 mph - N/A   Clear
4:54 AM 30.9 °F 22.8 °F 25.0 °F 79% 29.83 in 10.0 mi WSW 9.2 mph - N/A   Clear
5:54 AM 32.0 °F 28.7 °F 25.0 °F 75% 29.84 in 10.0 mi NW 3.5 mph - N/A   Clear
6:54 AM 33.1 °F - 25.0 °F 72% 29.85 in 10.0 mi Calm Calm - N/A   Clear
7:54 AM 39.0 °F 35.7 °F 28.0 °F 65% 29.85 in 10.0 mi NW 4.6 mph - N/A   Scattered Clouds
8:54 AM 45.0 °F 37.6 °F 28.9 °F 53% 29.81 in 10.0 mi West 17.3 mph - N/A   Clear
9:54 AM 48.9 °F - 27.0 °F 43% 29.80 in 10.0 mi West 17.3 mph 25.3 mph N/A   Partly Cloudy
10:54 AM 48.9 °F - 26.1 °F 41% 29.80 in 10.0 mi WNW 10.4 mph - N/A   Overcast
11:54 AM 48.9 °F - 28.0 °F 44% 29.79 in 10.0 mi West 13.8 mph - N/A   Overcast
12:54 PM 51.1 °F - 28.0 °F 41% 29.77 in 10.0 mi NNW 8.1 mph - N/A   Overcast
1:29 PM 50.0 °F - 28.0 °F 43% 29.76 in 10.0 mi SW 18.4 mph 27.6 mph N/A   Overcast
1:54 PM 48.9 °F - 28.9 °F 46% 29.79 in 10.0 mi West 18.4 mph 31.1 mph N/A   Overcast
2:54 PM 48.9 °F - 30.0 °F 48% 29.78 in 10.0 mi NNW 9.2 mph - 0.00 in   Overcast
3:54 PM 50.0 °F - 30.9 °F 48% 29.77 in 10.0 mi WNW 10.4 mph - N/A   Overcast
4:54 PM 50.0 °F - 34.0 °F 54% 29.76 in 10.0 mi West 8.1 mph - 0.00 in   Overcast
5:54 PM 50.0 °F - 35.1 °F 57% 29.75 in 10.0 mi SSE 3.5 mph - N/A   Mostly Cloudy
6:54 PM 51.1 °F - 34.0 °F 52% 29.76 in 10.0 mi NW 11.5 mph 21.9 mph N/A   Overcast
7:54 PM 46.9 °F - 36.0 °F 66% 29.77 in 10.0 mi North 6.9 mph - N/A   Clear
8:54 PM 42.1 °F 38.4 °F 35.1 °F 76% 29.78 in 10.0 mi WSW 5.8 mph - N/A   Mostly Cloudy
9:54 PM 39.9 °F 32.5 °F 35.1 °F 83% 29.78 in 10.0 mi SSW 12.7 mph - N/A   Scattered Clouds
10:54 PM 39.0 °F 31.4 °F 33.1 °F 79% 29.79 in 10.0 mi SW 12.7 mph - N/A   Clear
11:54 PM 39.9 °F 36.7 °F 30.9 °F 70% 29.77 in 10.0 mi Variable 4.6 mph - N/A   Clear